Simultaneous Nadir Overpasses (SNOs) Predictions

Prediction of SNOs between NOAA-15 and METOP-C Satellite Orbit:

Table of predicted SNOs for the next 14.0 days since TLE Epoch: 12/13/2019
Index Date (NOAA-15) Time (NOAA-15) Lat,Lon (NOAA-15) SZA (NOAA-15 ) Date (METOP-C) Time (METOP-C) Lat,Lon (METOP-C) SZA (METOP-C ) Distance(km) Time Diff (sec)
1 12/15/2019 01:36:19 80.81,-168.49 105.75 12/15/2019 01:35:11 80.77,-171.24 105.44 49.31 68
2 12/15/2019 02:26:53 -80.86, -2.03 74.29 12/15/2019 02:25:45 -80.87, -1.96 74.30 1.70 68
3 12/15/2019 03:17:25 80.88, 165.04 105.70 12/15/2019 03:16:27 80.86, 165.10 105.67 2.25 58
4 12/15/2019 04:07:56 -80.87, -27.42 74.30 12/15/2019 04:07:06 -80.87, -27.39 74.31 0.57 50
5 12/15/2019 04:58:27 80.86, 139.99 105.71 12/15/2019 04:57:47 80.87, 140.03 105.71 1.01 40
6 12/15/2019 05:48:59 -80.87, -52.82 74.30 12/15/2019 05:48:27 -80.86, -52.81 74.32 1.22 32
7 12/15/2019 06:39:30 80.87, 114.59 105.71 12/15/2019 06:39:08 80.87, 114.60 105.70 0.57 22
8 12/15/2019 07:30:01 -80.86, -77.86 74.29 12/15/2019 07:29:47 -80.88, -77.88 74.28 1.60 14
9 12/15/2019 08:20:33 80.88, 89.19 105.71 12/15/2019 08:20:29 80.86, 89.18 105.69 1.84 4
10 12/15/2019 09:11:04 -80.87,-103.25 74.29 12/15/2019 09:11:08 -80.87,-103.31 74.29 1.00 4
11 12/15/2019 10:01:35 80.87, 64.15 105.72 12/15/2019 10:01:49 80.88, 64.11 105.73 1.11 14
12 12/15/2019 10:52:07 -80.88,-128.65 74.29 12/15/2019 10:52:29 -80.87,-128.73 74.30 1.77 22
13 12/15/2019 11:42:38 80.88, 38.74 105.71 12/15/2019 11:43:10 80.87, 38.68 105.72 1.13 32
14 12/15/2019 12:33:09 -80.86,-153.69 74.28 12/15/2019 12:33:49 -80.88,-153.80 74.26 2.66 40
15 12/15/2019 13:23:41 80.88, 13.34 105.71 12/15/2019 13:24:31 80.87, 13.26 105.71 2.25 50
16 12/15/2019 14:14:12 -80.87,-179.08 74.28 12/15/2019 14:15:10 -80.88,-179.22 74.27 2.55 58
17 12/15/2019 15:04:43 80.87, -11.70 105.72 12/15/2019 15:05:51 80.88, -11.81 105.75 2.17 68




NCC Satellite Simultaneous Nadir Overpasses (SNOs) Prediction Service
